Location: Hamilton Branch State Park
(33.7552°N, 82.2209°W)
Time: 08:11:57
(UTC-04:00)

Hubble Space Telescope - Pass Details

Date: 20 September 2019
Orbit: 536 x 540 km, 28.5° (Epoch: 20 October)

Event Time Altitude Azimuth Distance (km) Brightness Sun altitude
Exits shadow 05:21:45 29° 151° (SSE) 998 2.2 -24.0°
Drops below altitude 10° 05:24:20 10° 121° (ESE) 1,778 3.9 -23.5°
Sets 05:26:43 0° 112° (ESE) 2,668 5.1 -23.0°
